User: anonymous   Login
Location: Risskov
(56.1972°N, 10.2480°E)
Time: 20:42:24
(UTC+00:00)
Language:

Thor Agena Rocket - Orbit

View from above orbital plane
View from above orbital plane
View from above satellite
View from above satellite

Ground track
Ground track

The orbit data is extracted from the following two-line orbital elements,

1   733U 64002A   20270.47774209 -.00000003  00000-0  16392-4 0  9995
2   733  98.9970 165.8840 0032934 298.5628  61.2241 14.32405721953709
Epoch (UTC): 26 September 2020 11:27:56
Eccentricity: 0.0032934
inclination: 98.9970°
perigee height: 760 km
apogee height: 807 km
right ascension of ascending node: 165.8840°
argument of perigee: 298.5628°
revolutions per day: 14.32405721
mean anomaly at epoch: 61.2241°
orbit number at epoch: 95370

The dashed part of the orbit path shows where the satellite is in the earth's shadow,  

DLR